www.pogodaiklimat.ru

Погода и климат >> Архив погоды >> Россия >> Краснодарский край >> Новороссийск


АРХИВ ПОГОДЫ в Новороссийске

Время (UTC), дата Ветер
(напр.,м/с)
 
Видим.   Явления Облачность Т
(С)
Тd
(С)
f
(%)
Тe
(С)
Тes
(С)
Комфортность P
(гПа)
Po
(гПа)
Тmin
(С)
Tmax
(С)
R
(мм)
R24
(мм)
S
(см)
06 9.01 СВ 7-10
{11}
20 км 10/4 1000 м
[Sc As trans]
-0.6 -7.2 61 -7 -7 прохладно 1013.1 1011.7 -1.1
09 9.01 С 5
{11}
20 км 8/3 1000 м
[Sc diur, vesp Ac trans]
+1.8 -6.8 53 -3 -2 по сезону 1015.2 1013.9
12 9.01 З 2 20 км 1/0
[Cc]
+4.1 -5.9 48 +2 +4 по сезону 1016.8 1015.5
15 9.01 ЮВ 3 10 км 10/10 600 м
[Cb calv]
+3.1 -4.1 59 -0 -0 по сезону 1018.3 1016.9 +4.5
18 9.01 ЮЗ 4 10 км в посл. час ливневой дождь 10/10 600 м
[Cb calv]
+5.2 +0.6 72 +1 +1 по сезону 1019.4 1018.0
21 9.01 ЮЗ 4
{10}
10 км {ливн. осадки} 10/10 600 м
[Cb calv]
+6.0 -0.5 63 +3 +3 по сезону 1020.1 1018.7
00 10.01 Ю 4
{10}
10 км {ливн. осадки} 8/8 1000 м
[Sc diur, vesp]
+7.0 -3.6 47 +4 +4 тепло 1021.0 1019.6
03 10.01 ЮВ 4 10 км 9/9 1000 м
[Sc]
+7.5 -3.2 47 +5 +5 тепло 1019.9 1018.5 +2.3 2
06 10.01 Ю 5-13
{13}
20 км 9/9 600 м
[Sc]
+7.9 -0.6 55 +5 +5 тепло 1020.4 1019.0
09 10.01 Ю 4-14
{14}
20 км 8/8 600 м
[Sc]
+8.8 -0.2 53 +6 +7 тепло 1019.6 1018.3
12 10.01 Ю 5-12
{14}
20 км 10/10 600 м
[Sc]
+9.1 +1.5 59 +6 +6 тепло 1018.4 1017.1
15 10.01 Ю 4-12
{13}
10 км слаб. ливневой дождь 10/10 600 м
[Cb cap]
+7.7 +3.6 75 +4 +4 по сезону 1018.8 1017.4 +9.5 0.9
18 10.01 Ю 5-12
{13}
10 км слаб. ливневой дождь 10/10 600 м
[Cb cap]
+7.5 +3.2 74 +4 +4 тепло 1018.7 1017.3
21 10.01 Ю 3-12
{12}
10 км слаб. ливневой дождь 10/10 600 м
[Cb cap]
+8.8 +4.3 73 +6 +6 тепло 1017.8 1016.5
00 11.01 Ю 4
{12}
10 км слаб. ливневой дождь 10/10 600 м
[Cb cap]
+9.1 +5.1 76 +6 +6 тепло 1017.6 1016.3
03 11.01 Ю 2
{11}
10 км слаб. ливневой дождь 10/10 600 м
[Cb cap]
+8.8 +5.5 80 +7 +7 тепло 1016.9 1015.6 +7.2 23
06 11.01 Ю 3
{11}
20 км слаб. ливневой дождь 10/10 600 м
[Cb cap]
+10.0 +5.5 74 +8 +8 тепло 1017.2 1015.9
09 11.01 Ю 3
{11}
20 км в посл. час ливневой дождь 10/10 600 м
[Cb cap]
+10.6 +5.6 71 +9 +9 тепло 1016.3 1015.0
12 11.01 Ю 3
{11}
20 км {ливн. осадки} 10/10 600 м
[Cb cap]
+10.7 +5.6 71 +9 +9 тепло 1014.8 1013.5
15 11.01 Ю 2 10 км 10/10 600 м
[Cb cap]
+10.5 +6.3 75 +9 +9 тепло 1014.8 1013.5 +10.7 4
18 11.01 Ю 3 10 км слаб. ливневой дождь 10/10 600 м
[Cb cap]
+10.3 +6.7 78 +8 +8 тепло 1014.3 1013.0
21 11.01 ЮЗ 4 10 км слаб. ливневой дождь 10/10 600 м
[Cb cap]
+9.8 +6.2 78 +7 +7 тепло 1013.2 1011.8
00 12.01 ЮЗ 6-10
{11}
10 км слаб. ливневой дождь 10/10 600 м
[Cb cap]
+9.3 +4.9 74 +6 +6 тепло 1013.0 1011.7
03 12.01 З 4
{10}
10 км в посл. час ливневой дождь 10/10 600 м
[Cb cap]
+7.7 +2.8 71 +5 +5 тепло 1012.8 1011.5 +7.7 6
06 12.01 штиль 0
{12}
10 км {ливн. осадки} 10/10 600 м
[Sc]
+5.1 +0.8 74 +4 +4 тепло 1014.4 1013.0 +5.1
09 12.01 штиль 0 10 км 10/10 600 м
[Sc]
+5.0 +0.4 72 +4 +4 тепло 1014.0 1012.6
12 12.01 СВ 1 10 км 10/10 600 м
[Sc]
+5.1 +0.5 72 +4 +4 по сезону 1012.6 1011.3
15 12.01 ЮЗ 3 10 км 10/10 600 м
[Sc]
+7.2 +1.0 65 +5 +5 тепло 1012.0 1010.7 +7.8
18 12.01 ЮЗ 4 10 км слаб. ливневой дождь 10/10 600 м
[Cb cap]
+7.3 +2.1 70 +4 +4 тепло 1010.9 1009.5
21 12.01 ЮЗ 4 4000 м слаб. ливневой дождь 10/10 300 м
[Cb cap]
+6.3 +3.5 82 +3 +3 по сезону 1009.5 1008.1
00 13.01 З 1 10 км слаб. ливневой дождь 10/10 300 м
[Cb cap]
+5.6 +2.6 81 +4 +4 тепло 1008.5 1007.1
03 13.01 СЗ 1 10 км в посл. час ливневой дождь 10/10 300 м
[Cb cap]
+3.6 +0.9 82 +2 +2 по сезону 1008.1 1006.7 +3.6 8
06 13.01 СВ 1 20 км {ливн. осадки} 10/10 300 м
[Cb cap]
+3.8 -2.8 62 +3 +3 тепло 1009.0 1007.7 +3.4
09 13.01 СЗ 1 20 км 9/0
[Ac As]
+6.2 -1.7 57 +6 +7 тепло 1009.0 1007.6
12 13.01 З 2 20 км 9/0
[Ac und]
+3.7 -1.0 71 +1 +2 по сезону 1009.4 1008.0
15 13.01 З 1 10 км 10/10 600 м
[Sc]
+3.6 -1.6 69 +2 +2 по сезону 1009.2 1007.8 +6.3
18 13.01 СВ 1 10 км 10/10 600 м
[Sc]
+3.0 -1.9 70 +2 +2 по сезону 1008.9 1007.6
21 13.01 штиль 0 10 км 10/10 600 м
[Sc]
+2.7 -1.0 77 +2 +2 по сезону 1008.3 1007.0
00 14.01 штиль 0 10 км 10/10 600 м
[Sc]
+3.4 -1.2 72 +3 +3 тепло 1007.0 1005.6
03 14.01 В 1 10 км слаб. ливневой дождь 10/10 600 м
[Cb cap]
+4.0 +1.8 86 +3 +3 тепло 1005.4 1004.1 +2.5 2
06 14.01 СЗ 2 20 км {ливн. осадки} 10/10 600 м
[Cb calv]
+5.1 +2.8 85 +3 +3 тепло 1005.1 1003.8
09 14.01 ЮЗ 3 20 км слаб. ливневой дождь 10/10 600 м
[Cb cap]
+7.0 +3.1 76 +4 +4 тепло 1004.4 1003.1
12 14.01 Ю 5 4000 м слаб. крупа 10/10 300 м
[Cb cap]
+8.9 +4.9 76 +6 +6 тепло 1002.5 1001.2
15 14.01 ЮЗ 5
{11}
10 км слаб. ливневой дождь 10/10 300 м
[Cb cap]
+9.5 +5.1 74 +6 +6 тепло 1002.6 1001.2 +9.6 2
18 14.01 ЮЗ 5 10 км слаб. ливневой дождь 10/10 300 м
[Cb cap]
+8.0 +4.2 77 +4 +4 тепло 1003.0 1001.6
21 14.01 ЮЗ 6
{11}
10 км {ливн. осадки} 10/10 600 м
[Cb calv]
+9.0 +1.6 60 +6 +6 тепло 1004.0 1002.6
00 15.01 Ю 5
{11}
10 км {ливн. осадки} 10/10 600 м
[Cb calv]
+9.1 +1.5 59 +6 +6 тепло 1003.8 1002.4
03 15.01 ЮЗ 3 10 км 10/0
[Ac trans Cc]
+9.2 +1.4 58 +7 +7 тепло 1003.8 1002.5 +7.7 2
06 15.01 Ю 3 20 км 8/0
[Ac trans Ci fib]
+9.6 +1.9 59 +8 +8 тепло 1003.9 1002.5
09 15.01 Ю 3 20 км 10/10 600 м
[Cb calv]
+10.7 +5.2 69 +9 +9 тепло 1003.8 1002.5
12 15.01 Ю 3-12
{12}
20 км слаб. ливневой дождь 10/10 600 м
[Cb cap]
+10.3 +5.8 74 +8 +8 тепло 1002.5 1001.2
15 15.01 ЮВ 2
{12}
10 км {ливн. осадки} 10/10 600 м
[Cb calv]
+11.0 +5.1 67 +10 +10 тепло 999.9 998.6 +11.0 0.6
18 15.01 Ю 3
{11}
10 км слаб. ливневой дождь 10/10 600 м
[Cb cap]
+10.7 +6.2 74 +9 +9 тепло 999.2 997.9
21 15.01 Ю 2 10 км слаб. ливневой дождь 10/10 600 м
[Cb cap]
+9.2 +7.1 87 +7 +7 тепло 997.0 995.7
00 16.01 В 2 10 км слаб. ливневой дождь 10/10 600 м
[Cb cap]
+9.5 +7.6 88 +8 +8 тепло 994.5 993.2

 

Местоположение метеостанции Новороссийск (Краснодарский край, Россия): широта 44.72 долгота 37.85 высота над уровнем моря 3 м.

В архиве по умолчанию представлена погода в Новороссийске за последнюю неделю. Архивные данные за месяц целиком и за предыдущие месяцы, начиная с января 2011 года, Вы можете получить, выбрав интересующий диапазон дат из раскрывающегося списка и нажав кнопку "Ввод!".


*Определитесь, кто Вы:
робот инопланетянин человек

Внимание! Время в таблицах - всемирное. Для получения местного времени необходимо прибавить поправку, которая равна 3 ч.

Смотрите также архив погоды в соседних городах и на ближайших метеорологических станциях:

Погода в Геленджике (Краснодарский край, Россия) (25 км)
Погода в Крымске (Краснодарский край, Россия) (25 км)
Погода в Анапе (Краснодарский край, Россия) (48 км)
Погода в Славянске-на-Кубани (Краснодарский край, Россия) (66 км)
Погода в Темрюке (Краснодарский край, Россия) (76 км)
Погода в Джубге (Краснодарский край, Россия) (81 км)
Погода в Горячем Ключе (Краснодарский край, Россия) (99 км)
Погода в Краснодаре (Краснодарский край, Россия) (100 км)
Погода в Тамани (Краснодарский край, Россия) (105 км)
Погода в Туапсе (Краснодарский край, Россия) (119 км)

Пояснения к столбцам:

Ветер - указаны скорость ветра в м/с - средняя за 10 мин, порывы в срок и между сроками (в фигурных скобках) и направление, откуда дует ветер: С - северный, СВ - северо-восточный, В - восточный, ЮВ - юго-восточный, Ю - южный, ЮЗ - юго-западный, З - западный, СЗ - северо-западный.
Видимость - горизонтальная дальность видимости в метрах или километрах. При видимости от 1 до 10 км при отсутствии осадков обычно наблюдается дымка, при ухудшении видимости до 1 км и менее - туман. В сухую погоду видимость может ухудшаться дымом, пылью или мглою.
Явления - указаны атмосферные явления, наблюдавшиеся в срок или в последний час перед сроком; фигурными скобками обозначены явления, наблюдавшиеся между сроками (за 1-3 часа до срока); квадратными скобками обозначены град или гололедные отложения с указанием их диаметра в мм.
Облачность - указаны через наклонную черту общая и нижняя облачность в баллах и высота нижней границы облаков в метрах; квадратными скобками обозначены формы облаков: Ci - перистые, Cs - перисто-слоистые, Cc - перисто-кучевые, Ac - высококучевые, As - высокослоистые, Sc - слоисто-кучевые, Ns - слоисто-дождевые, Cu - кучевые, Cb - кучево-дождевые. Подробнее классификацию облаков см. в Атласе облаков (PDF).
T - Температура воздуха - температура, измеренная на высоте 2 м над землей.
Td - Температура точки росы - температура, при понижении до которой содержащийся в воздухе водяной пар достигнет насыщения.
f - Относительная влажность воздуха - влажноcть воздуха, измеренная на высоте 2 м над землей.
Te - Эффективная температура - температура, которую ощущает одетый по сезону человек в тени. Характеристика душности погоды. При расчете учитывается влияние влажности воздуха и скорости ветра на теплоощущения человека.
Tes - Эффективная температура на солнце - температура, которую ощущает человек, с поправкой на солнечный нагрев. Характеристика знойности погоды. Зависит от высоты солнца над горизонтом, облачности и скорости ветра. Ночью, в пасмурную погоду, а также при ветре 12 м/с и более поправка равна нулю.
P - Атмосферное давление - приведенное к уровню моря атмосферное давление.
Po - Атмосферное давление - измеренное на уровне метеостанции атмосферное давление.
Tmin - Минимальная температура - минимум температуры воздуха на высоте 2 м над землей.
Tmax - Максимальная температура - максимум температуры воздуха на высоте 2 м над землей.
R - Количество осадков - Количество выпавших осадков за период времени, мм. При наведении курсора мыши на число - период времени, за который выпало указанное количество осадков.
R24 - Количество осадков - Количество выпавших осадков за 24 часа, мм.
S - Снежный покров - Высота снежного покрова, см. При наведении курсора мыши на число - состояние снежного покрова и степень покрытия местности в баллах.